Time,TemperatureF,DewpointF,PressureIn,WindDirection,WindDirectionDegrees,WindSpeedMPH,WindSpeedGustMPH,Humidity,HourlyPrecipIn,Conditions,Clouds,dailyrainin,SoftwareType,DateUTC
2013-10-20 00:13:00,45.4,34.0,29.89,ENE,59,0.0,3.0,65,0.00,,,0.00,weatherlink.com 1.10,2013-10-20 05:13:00,
2013-10-20 00:28:00,45.0,34.0,29.89,NE,44,0.0,2.0,66,0.00,,,0.00,weatherlink.com 1.10,2013-10-20 05:28:00,
2013-10-20 00:43:00,44.5,34.0,29.88,East,92,1.0,2.0,66,0.00,,,0.00,weatherlink.com 1.10,2013-10-20 05:43:00,
2013-10-20 00:58:00,43.8,34.0,29.88,East,90,0.0,3.0,68,0.00,,,0.00,weatherlink.com 1.10,2013-10-20 05:58:00,
2013-10-20 01:13:00,42.3,34.0,29.88,East,90,0.0,0.0,72,0.00,,,0.00,weatherlink.com 1.10,2013-10-20 06:13:00,
2013-10-20 01:28:00,40.4,33.0,29.88,East,90,0.0,0.0,75,0.00,,,0.00,weatherlink.com 1.10,2013-10-20 06:28:00,
2013-10-20 01:44:00,38.9,33.0,29.88,East,90,0.0,1.0,79,0.00,,,0.00,weatherlink.com 1.10,2013-10-20 06:44:00,
2013-10-20 01:59:00,38.2,33.0,29.88,East,90,0.0,0.0,81,0.00,,,0.00,weatherlink.com 1.10,2013-10-20 06:59:00,
2013-10-20 02:14:00,38.1,33.0,29.87,East,96,0.0,2.0,83,0.00,,,0.00,weatherlink.com 1.10,2013-10-20 07:14:00,
2013-10-20 02:29:00,39.7,34.0,29.87,ENE,67,0.0,2.0,80,0.00,,,0.00,weatherlink.com 1.10,2013-10-20 07:29:00,
2013-10-20 02:44:00,40.0,34.0,29.86,ENE,76,0.0,2.0,80,0.00,,,0.00,weatherlink.com 1.10,2013-10-20 07:44:00,
2013-10-20 02:59:00,40.9,35.0,29.86,East,92,1.0,2.0,78,0.00,,,0.00,weatherlink.com 1.10,2013-10-20 07:59:00,
2013-10-20 03:14:00,40.8,34.0,29.85,ESE,109,1.0,3.0,78,0.00,,,0.00,weatherlink.com 1.10,2013-10-20 08:14:00,
2013-10-20 03:29:00,40.8,34.0,29.84,ESE,110,1.0,3.0,78,0.00,,,0.00,weatherlink.com 1.10,2013-10-20 08:29:00,
2013-10-20 03:44:00,40.7,35.0,29.84,ESE,104,2.0,3.0,79,0.00,,,0.00,weatherlink.com 1.10,2013-10-20 08:44:00,
2013-10-20 03:59:00,41.0,35.0,29.83,ESE,110,2.0,4.0,79,0.00,,,0.00,weatherlink.com 1.10,2013-10-20 08:59:00,
2013-10-20 04:14:00,41.0,35.0,29.82,ESE,105,0.0,3.0,80,0.00,,,0.00,weatherlink.com 1.10,2013-10-20 09:14:00,
2013-10-20 04:29:00,41.2,35.0,29.82,East,98,2.0,5.0,78,0.00,,,0.00,weatherlink.com 1.10,2013-10-20 09:29:00,
2013-10-20 04:44:00,41.8,34.0,29.82,ESE,111,2.0,4.0,74,0.00,,,0.00,weatherlink.com 1.10,2013-10-20 09:44:00,
2013-10-20 04:59:00,42.0,35.0,29.81,ESE,121,2.0,7.0,75,0.00,,,0.00,weatherlink.com 1.10,2013-10-20 09:59:00,
2013-10-20 05:14:00,41.7,35.0,29.81,SE,135,4.0,4.0,76,0.00,,,0.00,weatherlink.com 1.10,2013-10-20 10:14:00,
2013-10-20 05:29:00,41.8,34.0,29.80,SE,130,4.0,8.0,73,0.00,,,0.00,weatherlink.com 1.10,2013-10-20 10:29:00,
2013-10-20 05:44:00,41.8,34.0,29.80,SE,126,1.0,9.0,73,0.00,,,0.00,weatherlink.com 1.10,2013-10-20 10:44:00,
2013-10-20 05:59:00,41.8,34.0,29.79,ESE,123,7.0,8.0,73,0.00,,,0.00,weatherlink.com 1.10,2013-10-20 10:59:00,
2013-10-20 06:14:00,41.9,34.0,29.79,SE,128,6.0,7.0,73,0.00,,,0.00,weatherlink.com 1.10,2013-10-20 11:14:00,
2013-10-20 06:29:00,42.0,34.0,29.78,ESE,120,2.0,7.0,73,0.00,,,0.00,weatherlink.com 1.10,2013-10-20 11:29:00,
2013-10-20 06:44:00,42.2,34.0,29.78,ESE,112,3.0,9.0,74,0.00,,,0.00,weatherlink.com 1.10,2013-10-20 11:44:00,
2013-10-20 06:59:00,42.3,35.0,29.77,ESE,117,2.0,8.0,75,0.00,,,0.00,weatherlink.com 1.10,2013-10-20 11:59:00,
2013-10-20 07:14:00,42.4,35.0,29.77,SE,128,6.0,7.0,75,0.00,,,0.00,weatherlink.com 1.10,2013-10-20 12:14:00,
2013-10-20 07:29:00,42.5,35.0,29.77,ESE,111,3.0,8.0,76,0.00,,,0.00,weatherlink.com 1.10,2013-10-20 12:29:00,
2013-10-20 07:44:00,42.5,36.0,29.77,SSE,159,0.0,7.0,77,0.00,,,0.00,weatherlink.com 1.10,2013-10-20 12:44:00,
2013-10-20 07:59:00,42.7,36.0,29.76,East,94,6.0,9.0,77,0.00,,,0.00,weatherlink.com 1.10,2013-10-20 12:59:00,
2013-10-20 08:14:00,42.8,36.0,29.76,SE,135,4.0,8.0,77,0.00,,,0.00,weatherlink.com 1.10,2013-10-20 13:14:00,
2013-10-20 08:29:00,43.3,37.0,29.76,SSE,148,6.0,6.0,78,0.00,,,0.00,weatherlink.com 1.10,2013-10-20 13:29:00,
2013-10-20 08:44:00,43.8,38.0,29.78,WNW,297,2.0,10.0,79,0.00,,,0.00,weatherlink.com 1.10,2013-10-20 13:44:00,
2013-10-20 08:59:00,44.4,38.0,29.76,ESE,119,2.0,4.0,78,0.00,,,0.00,weatherlink.com 1.10,2013-10-20 13:59:00,
2013-10-20 09:14:00,45.0,39.0,29.76,SE,136,1.0,6.0,78,0.00,,,0.00,weatherlink.com 1.10,2013-10-20 14:14:00,
2013-10-20 09:29:00,45.8,39.0,29.77,South,184,1.0,4.0,78,0.00,,,0.00,weatherlink.com 1.10,2013-10-20 14:29:00,
2013-10-20 09:44:00,46.6,40.0,29.76,SSW,193,3.0,5.0,77,0.00,,,0.00,weatherlink.com 1.10,2013-10-20 14:44:00,
2013-10-20 10:00:00,47.4,41.0,29.76,SSW,192,0.0,5.0,77,0.00,,,0.00,weatherlink.com 1.10,2013-10-20 15:00:00,
2013-10-20 10:15:00,48.5,41.0,29.76,SSW,198,1.0,6.0,75,0.00,,,0.00,weatherlink.com 1.10,2013-10-20 15:15:00,
2013-10-20 10:30:00,50.1,42.0,29.76,WSW,237,4.0,5.0,73,0.00,,,0.00,weatherlink.com 1.10,2013-10-20 15:30:00,
2013-10-20 10:45:00,51.3,42.0,29.76,SSW,192,0.0,6.0,70,0.00,,,0.00,weatherlink.com 1.10,2013-10-20 15:45:00,
2013-10-20 11:00:00,51.8,42.0,29.76,SW,214,5.0,8.0,70,0.00,,,0.00,weatherlink.com 1.10,2013-10-20 16:00:00,
2013-10-20 11:15:00,52.1,43.0,29.76,SSW,203,3.0,5.0,70,0.00,,,0.00,weatherlink.com 1.10,2013-10-20 16:15:00,
2013-10-20 11:30:00,52.6,43.0,29.76,SW,225,2.0,5.0,70,0.00,,,0.00,weatherlink.com 1.10,2013-10-20 16:30:00,
2013-10-20 11:45:00,53.9,44.0,29.76,SW,234,0.0,4.0,69,0.00,,,0.00,weatherlink.com 1.10,2013-10-20 16:45:00,
2013-10-20 12:00:00,54.9,44.0,29.76,SW,231,2.0,5.0,67,0.00,,,0.00,weatherlink.com 1.10,2013-10-20 17:00:00,
2013-10-20 12:15:00,56.0,44.0,29.76,West,279,1.0,4.0,65,0.00,,,0.00,weatherlink.com 1.10,2013-10-20 17:15:00,
2013-10-20 12:30:00,57.2,45.0,29.75,West,267,2.0,3.0,65,0.00,,,0.00,weatherlink.com 1.10,2013-10-20 17:30:00,
2013-10-20 12:45:00,58.4,44.0,29.75,WSW,252,3.0,6.0,60,0.00,,,0.00,weatherlink.com 1.10,2013-10-20 17:45:00,
2013-10-20 13:00:00,59.6,45.0,29.75,West,274,5.0,8.0,59,0.00,,,0.00,weatherlink.com 1.10,2013-10-20 18:00:00,
2013-10-20 13:15:00,60.4,43.0,29.75,West,275,8.0,10.0,54,0.00,,,0.00,weatherlink.com 1.10,2013-10-20 18:15:00,
2013-10-20 13:30:00,60.3,43.0,29.75,West,280,3.0,10.0,54,0.00,,,0.00,weatherlink.com 1.10,2013-10-20 18:30:00,
2013-10-20 15:41:00,63.0,42.0,29.75,WNW,287,2.0,10.0,47,0.00,,,0.00,weatherlink.com 1.10,2013-10-20 20:41:00,
2013-10-20 16:00:00,63.2,42.0,29.76,West,275,7.0,11.0,47,0.00,,,0.00,weatherlink.com 1.10,2013-10-20 21:00:00,
2013-10-20 16:15:00,63.5,41.0,29.76,West,276,5.0,15.0,44,0.00,,,0.00,weatherlink.com 1.10,2013-10-20 21:15:00,
2013-10-20 16:30:00,63.2,41.0,29.77,WNW,299,6.0,14.0,44,0.00,,,0.00,weatherlink.com 1.10,2013-10-20 21:30:00,
2013-10-20 16:45:00,62.9,41.0,29.77,West,277,4.0,12.0,45,0.00,,,0.00,weatherlink.com 1.10,2013-10-20 21:45:00,
2013-10-20 17:00:00,62.7,40.0,29.78,West,265,9.0,14.0,44,0.00,,,0.00,weatherlink.com 1.10,2013-10-20 22:00:00,
2013-10-20 17:15:00,61.8,42.0,29.79,WNW,301,11.0,21.0,49,0.00,,,0.00,weatherlink.com 1.10,2013-10-20 22:15:00,
2013-10-20 17:30:00,59.9,42.0,29.79,NW,307,8.0,17.0,52,0.00,,,0.00,weatherlink.com 1.10,2013-10-20 22:30:00,
2013-10-20 17:45:00,59.2,41.0,29.80,NW,307,8.0,16.0,51,0.00,,,0.00,weatherlink.com 1.10,2013-10-20 22:45:00,
2013-10-20 18:00:00,58.5,40.0,29.81,WNW,290,10.0,13.0,51,0.00,,,0.00,weatherlink.com 1.10,2013-10-20 23:00:00,
2013-10-20 18:15:00,58.1,41.0,29.82,NW,304,4.0,11.0,53,0.00,,,0.00,weatherlink.com 1.10,2013-10-20 23:15:00,
2013-10-20 18:30:00,57.4,40.0,29.82,WNW,284,4.0,12.0,53,0.00,,,0.00,weatherlink.com 1.10,2013-10-20 23:30:00,
2013-10-20 18:45:00,56.9,40.0,29.83,WNW,292,7.0,15.0,54,0.00,,,0.00,weatherlink.com 1.10,2013-10-20 23:45:00,
2013-10-20 19:01:00,55.2,40.0,29.84,NW,305,5.0,12.0,57,0.00,,,0.00,weatherlink.com 1.10,2013-10-21 00:01:00,
2013-10-20 19:16:00,53.6,40.0,29.85,NW,307,5.0,11.0,60,0.00,,,0.00,weatherlink.com 1.10,2013-10-21 00:16:00,
2013-10-20 19:31:00,52.8,40.0,29.86,WNW,299,9.0,15.0,63,0.00,,,0.00,weatherlink.com 1.10,2013-10-21 00:31:00,
2013-10-20 19:46:00,51.9,40.0,29.86,West,263,8.0,11.0,65,0.00,,,0.00,weatherlink.com 1.10,2013-10-21 00:46:00,
2013-10-20 20:01:00,51.2,41.0,29.87,WNW,297,5.0,12.0,67,0.00,,,0.00,weatherlink.com 1.10,2013-10-21 01:01:00,
2013-10-20 20:16:00,50.1,41.0,29.88,WNW,286,5.0,9.0,70,0.00,,,0.00,weatherlink.com 1.10,2013-10-21 01:16:00,
2013-10-20 20:31:00,49.6,41.0,29.88,West,277,4.0,10.0,72,0.00,,,0.00,weatherlink.com 1.10,2013-10-21 01:31:00,
2013-10-20 20:46:00,49.6,41.0,29.88,NW,310,4.0,10.0,73,0.00,,,0.00,weatherlink.com 1.10,2013-10-21 01:46:00,
2013-10-20 21:01:00,49.0,41.0,29.89,WNW,298,4.0,10.0,74,0.00,,,0.00,weatherlink.com 1.10,2013-10-21 02:01:00,
2013-10-20 21:16:00,48.0,41.0,29.90,WNW,301,5.0,8.0,76,0.00,,,0.00,weatherlink.com 1.10,2013-10-21 02:16:00,
2013-10-20 21:31:00,48.8,41.0,29.91,WNW,303,7.0,17.0,74,0.00,,,0.00,weatherlink.com 1.10,2013-10-21 02:31:00,
2013-10-20 21:46:00,48.2,41.0,29.92,WNW,286,9.0,11.0,75,0.00,,,0.00,weatherlink.com 1.10,2013-10-21 02:46:00,
2013-10-20 22:01:00,47.9,40.0,29.93,West,277,9.0,12.0,75,0.00,,,0.00,weatherlink.com 1.10,2013-10-21 03:01:00,
2013-10-20 22:16:00,47.0,40.0,29.93,WNW,286,10.0,12.0,77,0.00,,,0.00,weatherlink.com 1.10,2013-10-21 03:16:00,
2013-10-20 22:31:00,47.4,40.0,29.93,NNW,334,9.0,15.0,76,0.00,,,0.00,weatherlink.com 1.10,2013-10-21 03:31:00,
2013-10-20 22:46:00,47.2,40.0,29.95,NW,321,13.0,20.0,77,0.00,,,0.00,weatherlink.com 1.10,2013-10-21 03:46:00,
2013-10-20 23:01:00,45.8,39.0,29.96,NNW,331,15.0,17.0,76,0.00,,,0.00,weatherlink.com 1.10,2013-10-21 04:01:00,
2013-10-20 23:16:00,44.9,38.0,29.97,WNW,300,10.0,17.0,76,0.00,,,0.00,weatherlink.com 1.10,2013-10-21 04:16:00,
2013-10-20 23:31:00,44.4,38.0,29.97,WNW,289,12.0,16.0,77,0.00,,,0.00,weatherlink.com 1.10,2013-10-21 04:31:00,
2013-10-20 23:46:00,44.1,37.0,29.98,NW,325,13.0,19.0,76,0.00,,,0.00,weatherlink.com 1.10,2013-10-21 04:46:00,